Regional Weather Roundup
Issued by NWS Charleston, SC

Current Version | Previous Version | Text Only | Print | Product List | Glossary Off
Versions: 1 2 3 4 5 6 7 8 9 10 11 12 13 14 15 16 17 18 19 20 21 22 23 24 25 26 27 28 29 30 31 32 33 34 35 36 37 38 39 40 41 42 43 44 45 46 47 48 49 50

000
ASUS42 KCHS 021827
RWRCHS
REGIONAL WEATHER ROUNDUP
NATIONAL WEATHER SERVICE CHARLESTON SC
200 PM EDT SUN AUG 02 2015

NOTE: "FAIR" INDICATES FEW OR NO CLOUDS BELOW 12,000 FEET WITH NO
SIGNIFICANT WEATHER AND/OR OBSTRUCTIONS TO VISIBILITY.

NOT ALL STATIONS ARE QUALITY CONTROLLED BY THE NATIONAL
WEATHER SERVICE. USE DATA WITH CAUTION...ESPECIALLY
DEWPOINT OBSERVATIONS.

SCZ027-030-031-034>040-042>050-021900-
...SOUTHEAST SOUTH CAROLINA...

CITY           SKY/WX    TMP DP  RH WIND       PRES   REMARKS
N CHARLESTON   TSTM      76  69  79 E8G26     29.97R
6HR MIN TEMP:  75; 6HR MAX TEMP:  89; 6HR PCP: TRACE;

WATERFRONT PRK   N/A     81  75  82 S7        29.93R
MOUNT PLEASANT LGT RAIN  79  73  83 S8        29.96S
JOHNS ISLAND   MOCLDY    82  75  78 CALM      29.97R
PINOPOLIS      NOT AVBL
MONCKS CORNER  FAIR      84  73  70 SE9G17    29.94S HX  91
SUMMERVILLE    RAIN      77  77 100 SE3       29.96F
BEAUFORT MCAS  CLOUDY    76  75  97 CALM      29.95S
6HR MIN TEMP:  75; 6HR MAX TEMP:  85; 6HR PCP:  2.27;

BEAUFORT ARPT  FAIR      79  77  94 N3        29.94S FOG
HILTON HEAD IS PTSUNNY   82  73  74 S5        29.95S
WALTERBORO     RAIN      77  73  88 S5        29.96S
ALLENDALE      FAIR      90  72  55 E5        29.91S HX  96

...SOUTHERN MIDLANDS AND PEE DEE...

CITY           SKY/WX    TMP DP  RH WIND       PRES   REMARKS
GEORGETOWN     NOT AVBL
KINGSTREE      NOT AVBL
ORANGEBURG     SUNNY     93  65  39 MISG      29.92F HX  95
6HR MIN TEMP:  75; 6HR MAX TEMP:  93;

BARNWELL       FAIR      91  72  52 E8G16     29.92F HX  98
AIKEN          FAIR      91  61  35 E9        29.95F HX  91
MANNING        RAIN      90  63  40 CALM      29.91F HX  90
COLUMBIA       LGT RAIN  89  65  44 S9G25     29.91F HX  91
6HR MIN TEMP:  77; 6HR MAX TEMP:  94; 6HR PCP: TRACE;

SUMTER         MOSUNNY   92  64  38 E8        29.90F HX  93
6HR MIN TEMP:  75; 6HR MAX TEMP:  92;

FLORENCE       SUNNY     94  62  34 SE9       29.92F HX  94
6HR MIN TEMP:  77; 6HR MAX TEMP:  94;

MYRTLE BEACH   MOSUNNY   88  72  58 S15       29.96S HX  94
N MYRTLE BEACH SUNNY     86  74  67 S10       29.95S HX  94
6HR MIN TEMP:  77; 6HR MAX TEMP:  88;


$$

GAZ063-065-086>088-099>101-113>116-118-119-134>141-150-021900-
...SOUTHEAST GEORGIA...

CITY           SKY/WX    TMP DP  RH WIND       PRES   REMARKS
SAVANNAH ARPT  PTSUNNY   84  75  74 E6        29.93S HX  92
6HR MIN TEMP:  76; 6HR MAX TEMP:  85; 6HR PCP:  0.24;

HUNTER AAF     PTSUNNY   82  77  83 SE9       29.90S HX  91
6HR MIN TEMP:  76; 6HR MAX TEMP:  83; 6HR PCP:  0.45;

FORT STEWART   PTSUNNY   93  70  46 E10       29.82F HX  99
STATESBORO     LGT RAIN  78  76  94 SE3       29.93R
SYLVANIA       MOCLDY    86  78  76 S8        29.93R HX  97
CLAXTON        NOT AVBL

...CSRA...CENTRAL AND FAR SOUTHEAST GEORGIA...

CITY           SKY/WX    TMP DP  RH WIND       PRES   REMARKS
THOMSON        MOSUNNY   94  73  51 E6        29.95F HX 103
AUGUSTA-BUSH   MOSUNNY   91  71  51 VRB7      29.90F HX  97
6HR MIN TEMP:  74; 6HR MAX TEMP:  91;

AUGUSTA-DANIEL PTSUNNY   88  71  57 SE8       29.92F HX  94
SWAINSBORO     FAIR      91  73  55 SE8       29.92F HX 100
VIDALIA        LGT RAIN  82  75  78 N6        29.91F
EASTMAN        MOCLDY    89  75  62 SE8       29.92F HX  99
HAZLEHURST     FAIR      88  75  66 NE6       29.89F HX  97
ALMA           PTSUNNY   85  73  67 VRB3      29.89F HX  91
6HR MIN TEMP:  76; 6HR MAX TEMP:  86;

WAYCROSS       PTSUNNY   88  79  74 NE6       29.88F HX 103
JESUP          MOCLDY    90  77  66 E6        29.89F HX 102
BAXLEY         CLOUDY    86  73  66 NE7       29.89F HX  93
BRUNSWICK      CLOUDY    81  77  89 SE3       29.92S
SAINT SIMONS   CLOUDY    82  74  76 S7        29.91F
6HR MIN TEMP:  77; 6HR MAX TEMP:  84; 6HR PCP: TRACE;


$$

SCZ027-028-034-036>038-045-046-048>050-GAZ119-141-021900-
...LAKE AND SUPPLEMENTAL COASTAL OBSERVATIONS...

STATION/POSITION TIME  TEMP    WIND        PRES    WAVE   SWELL
                       AIR SEA DIR/SP/G            HT/PER HT/PER/DIR
                 (UTC) (F)     (DEG/KT/KT) (MB)    (FT/S) (FT/S/D)
UPR LAKE MARION  NOT AVBL
WINYAH BAY       1700   83     110/  7     1014.0
LAKE MURRAY      1700   89     110/  3/  8 1012.9F
ACE BASIN NERRS  NOT AVBL
FORT PULASKI     1800   82 86  130/  7/ 11 1014.0R
SAPELO ISLAND    1800   85     150/  8     1013.0S

$$

ANZ835-935-AMZ111-154-330-350-352-354-370-450-454-472-021900-
...C-MAN AND BUOY OBSERVATIONS...

STATION/POSITION TIME  TEMP    WIND        PRES    WAVE   SWELL
                       AIR SEA DIR/SP/G            HT/PER HT/PER/DIR
                 (UTC) (F)     (DEG/KT/KT) (MB)    (FT/S) (FT/S/D)
BUOY 41004       1750   78 83  140/ 12/ 14 1014.2F   4/ 6   3/ 6
BUOY 41008       1750   80 83  190/ 12/ 14 1013.5F   3/ 6   3/150/ 6
FOLLY BEACH CMAN 1800   80     110/ 13/ 15 1015.0R
CAPERS NEARSHORE 1708   80     140/ 16/ 19 1014.6R
FRIPP NEARSHORE  1700   83     200/  8/ 10 1013.5F


STATION/POSITION TIME  TEMP    WIND        PRES    WAVE   SWELL
                       AIR SEA DIR/SP/G            HT/PER HT/PER/DIR
                 (UTC) (F)     (DEG/KT/KT) (MB)    (FT/S) (FT/S/D)
5E ST. MARYS GA  1721      83                N/A     3/ 5   2/110/12
FRYING PAN BUOY  1750   82 84  180/ 14/ 17 1015.2R   5/ 7   3/170/ 7
BUOY 41025       1750   82 86  170/ 14/ 16 1014.5R   3/ 8   2/170/ 8
CAPE LOOKOUT NC  1800   82     170/ 11/ 13 1014.2R
BUOY 41002       1750   83 81  220/ 12/ 16 1017.0S   7/ 8   7/270/ 8
BUOY 41010       1720   83 84  170/ 14/ 17 1016.4R
ST AUGUSTINE FL  1800   85 81  190/ 19/ 22 1013.2F


$$


USA.gov is the U.S. government's official web portal to all federal, state and local government web resources and services.